GW1401 Weather Reports


Display with metric or nautical units.
time (UTC)temp
F
wind
direction
speed
MPH
gust
MPH
rain 1hr
in
rain 24hr
in
rain mn
in
humidity
%
barometer
mb
20260502170349 55 154 1.0 2.0 0.00 0.00 0.00 59 1022.1
20260502164336 57 241 2.0 3.0 0.00 0.00 0.00 56 1022.2
20260502163832 57 86 1.0 2.0 0.00 0.00 0.00 54 1022.3
20260502163328 56 146 0.0 1.0 0.00 0.00 0.00 56 1022.4
20260502162826 55 332 2.0 3.0 0.00 0.00 0.00 56 1022.5
20260502162322 57 358 2.0 5.0 0.00 0.00 0.00 55 1022.6
20260502161820 56 136 0.0 1.0 0.00 0.00 0.00 60 1022.6
20260502161315 55 142 1.0 2.0 0.00 0.00 0.00 59 1022.6
20260502160814 55 131 1.0 2.0 0.00 0.00 0.00 60 1022.5
20260502160312 54 190 1.0 2.0 0.00 0.00 0.00 61 1022.6
20260502152241 53 276 1.0 3.0 0.00 0.00 0.00 64 1022.4
20260502151739 54 199 1.0 3.0 0.00 0.00 0.00 63 1022.6
20260502151235 54 156 0.0 1.0 0.00 0.00 0.00 60 1022.6
20260502150733 53 133 0.0 2.0 0.00 0.00 0.00 63 1022.5
20260502150230 54 127 0.0 1.0 0.00 0.00 0.00 62 1022.7
20260502130618 47 127 0.0 0.0 0.00 0.00 0.00 80 1022.3
20260502130116 46 44 1.0 1.0 0.00 0.00 0.00 81 1022.1
20260502123602 44 115 0.0 0.0 0.00 0.00 0.00 91 1022.0
20260502123058 44 111 0.0 0.0 0.00 0.00 0.00 92 1022.2
20260502122554 44 118 0.0 1.0 0.00 0.00 0.00 92 1022.2
20260502122052 43 91 0.0 1.0 0.00 0.00 0.00 93 1022.3
20260502121549 43 125 0.0 0.0 0.00 0.00 0.00 94 1022.2
20260502121047 43 118 0.0 0.0 0.00 0.00 0.00 95 1022.0
20260502120542 43 139 0.0 1.0 0.00 0.00 0.00 96 1022.1
20260502115538 42 133 0.0 1.0 0.00 0.00 0.00 99 1021.9
20260502115033 42 124 0.0 1.0 0.00 0.00 0.00 99 1021.9
20260502114530 42 99 0.0 0.0 0.00 0.00 0.00 99 1021.7
20260502114027 42 111 0.0 0.0 0.00 0.00 0.00 99 1021.6
20260502113525 42 110 0.0 0.0 0.00 0.00 0.00 99 1021.6
20260502113023 42 110 0.0 0.0 0.00 0.00 0.00 99 1021.4
20260502112521 42 136 0.0 0.0 0.00 0.00 0.00 99 1021.4
20260502112018 41 119 0.0 0.0 0.00 0.00 0.00 99 1021.5
20260502111515 41 115 0.0 0.0 0.00 0.00 0.00 99 1021.4
20260502111013 41 119 0.0 0.0 0.00 0.00 0.00 99 1021.6
20260502110510 41 113 0.0 0.0 0.00 0.00 0.00 99 1021.3
20260502110008 41 112 0.0 0.0 0.00 0.00 0.00 99 1021.3
20260502105504 40 130 0.0 0.0 0.00 0.00 0.00 99 1021.3
20260502105002 40 112 0.0 0.0 0.00 0.00 0.00 99 1021.4
20260502104459 40 114 0.0 0.0 0.00 0.00 0.00 99 1021.4
20260502103956 40 88 0.0 0.0 0.00 0.00 0.00 99 1021.0
20260502103454 40 118 0.0 0.0 0.00 0.00 0.00 99 1021.1
20260502102951 40 117 0.0 0.0 0.00 0.00 0.00 99 1021.3
20260502102448 40 116 0.0 0.0 0.00 0.00 0.00 99 1021.4
20260502101944 39 118 0.0 0.0 0.00 0.00 0.00 99 1021.6
20260502101443 39 112 0.0 0.0 0.00 0.00 0.00 99 1021.3
20260502100941 39 101 0.0 0.0 0.00 0.00 0.00 99 1021.2
20260502100439 40 112 0.0 0.0 0.00 0.00 0.00 99 1021.2
20260502091414 40 127 0.0 0.0 0.00 0.00 0.00 99 1021.2
20260502090911 40 113 0.0 0.0 0.00 0.00 0.00 99 1021.4
20260502090408 39 116 0.0 0.0 0.00 0.00 0.00 99 1021.2
20260502071302 38 111 0.0 0.0 0.00 0.00 0.00 99 1020.9
20260502070801 38 111 0.0 0.0 0.00 0.00 0.00 99 1020.9
20260502070258 38 111 0.0 0.0 0.00 0.00 0.00 99 1021.0
20260502065757 38 111 0.0 0.0 0.00 0.00 0.00 99 1020.9
20260502065254 38 111 0.0 0.0 0.00 0.00 0.00 99 1020.9
20260502064752 39 111 0.0 0.0 0.00 0.00 0.00 99 1021.1
20260502064250 39 111 0.0 0.0 0.00 0.00 0.00 99 1021.3
20260502063747 39 111 0.0 0.0 0.00 0.00 0.00 99 1021.2
20260502063245 39 111 0.0 0.0 0.00 0.00 0.00 99 1021.2
20260502062742 39 111 0.0 0.0 0.00 0.00 0.00 99 1021.2
20260502062239 39 111 0.0 0.0 0.00 0.00 0.00 99 1021.3
20260502061738 39 111 0.0 0.0 0.00 0.00 0.00 99 1021.2
20260502061235 39 111 0.0 0.0 0.00 0.00 0.00 99 1021.1
20260502060730 39 111 0.0 0.0 0.00 0.00 0.00 99 1021.2
20260502060226 39 111 0.0 0.0 0.00 0.00 0.00 99 1021.3
20260502055725 39 114 0.0 0.0 0.00 0.00 0.00 99 1021.2
20260502055222 39 102 0.0 0.0 0.00 0.00 0.00 99 1021.4
20260502054721 39 113 0.0 0.0 0.00 0.00 0.00 99 1021.4
20260502054218 39 112 0.0 0.0 0.00 0.00 0.00 99 1021.5
20260502053715 39 114 0.0 0.0 0.00 0.00 0.00 99 1021.5
20260502053212 39 116 0.0 0.0 0.00 0.00 0.00 99 1021.4
20260502052711 39 114 0.0 0.0 0.00 0.00 0.00 99 1021.5
20260502052209 39 117 0.0 0.0 0.00 0.00 0.00 99 1021.5
20260502051706 40 118 0.0 0.0 0.00 0.00 0.00 99 1021.6
20260502051204 40 123 0.0 0.0 0.00 0.00 0.00 99 1021.9
20260502050700 40 135 0.0 0.0 0.00 0.00 0.00 99 1021.7
20260502050157 40 116 0.0 0.0 0.00 0.00 0.00 99 1021.7
20260502045654 40 116 0.0 0.0 0.00 0.00 0.00 99 1021.6
20260502045151 40 121 0.0 0.0 0.00 0.00 0.00 99 1021.7
20260502044647 40 111 0.0 0.0 0.00 0.00 0.00 99 1021.5
20260502044144 40 117 0.0 0.0 0.00 0.00 0.00 99 1021.5
20260502043642 40 117 0.0 0.0 0.00 0.00 0.00 98 1021.5
20260502043139 40 117 0.0 0.0 0.00 0.00 0.00 98 1021.4
20260502042638 40 117 0.0 0.0 0.00 0.00 0.00 98 1021.7
20260502042135 41 115 0.0 0.0 0.00 0.00 0.00 98 1021.7
20260502041633 41 115 0.0 0.0 0.00 0.00 0.00 98 1021.8
20260502041130 41 115 0.0 0.0 0.00 0.00 0.00 98 1021.8
20260502040626 41 115 0.0 0.0 0.00 0.00 0.00 97 1021.7
20260502040124 41 115 0.0 0.0 0.00 0.00 0.00 97 1021.9
20260502035620 41 115 0.0 0.0 0.00 0.00 0.00 97 1021.6
20260502035117 41 115 0.0 0.0 0.00 0.00 0.00 97 1021.9
20260502034615 41 115 0.0 0.0 0.00 0.00 0.00 96 1021.8
20260502034113 41 115 0.0 0.0 0.00 0.00 0.00 96 1021.6
20260502033611 41 115 0.0 0.0 0.00 0.00 0.00 96 1021.8
20260502033108 41 116 0.0 0.0 0.00 0.00 0.00 95 1021.7
20260502032604 42 115 0.0 0.0 0.00 0.00 0.00 95 1021.6
20260502032100 42 116 0.0 0.0 0.00 0.00 0.00 95 1021.5
20260502031558 42 116 0.0 0.0 0.00 0.00 0.00 94 1021.6
20260502031056 42 112 0.0 0.0 0.00 0.00 0.00 94 1021.4
20260502030555 43 112 0.0 0.0 0.00 0.00 0.00 93 1021.3
20260502030052 43 115 0.0 0.0 0.00 0.00 0.00 92 1021.6
20260502025549 43 115 0.0 0.0 0.00 0.00 0.00 92 1021.5
20260502025047 43 111 0.0 0.0 0.00 0.00 0.00 91 1021.6
20260502024545 43 115 0.0 0.0 0.00 0.00 0.00 90 1021.7
20260502024043 44 115 0.0 0.0 0.00 0.00 0.00 90 1021.7
20260502023540 44 113 0.0 0.0 0.00 0.00 0.00 89 1021.7
20260502023037 44 115 0.0 0.0 0.00 0.00 0.00 89 1021.6
20260502022534 44 115 0.0 0.0 0.00 0.00 0.00 89 1021.7
20260502022032 44 115 0.0 0.0 0.00 0.00 0.00 88 1021.6
20260502021529 44 115 0.0 0.0 0.00 0.00 0.00 87 1021.3
20260502021025 44 115 0.0 0.0 0.00 0.00 0.00 87 1021.4
20260502020523 45 115 0.0 0.0 0.00 0.00 0.00 87 1021.3
20260502020020 45 115 0.0 0.0 0.00 0.00 0.00 87 1021.2
20260502015518 46 115 0.0 0.0 0.00 0.00 0.00 87 1021.1
20260502015014 46 115 0.0 0.0 0.00 0.00 0.00 85 1020.7
20260502014511 46 115 0.0 0.0 0.00 0.00 0.00 84 1020.9
20260502014008 46 111 0.0 0.0 0.00 0.00 0.00 83 1020.7
20260502013503 47 111 0.0 0.0 0.00 0.00 0.00 82 1020.6
20260502013000 47 110 0.0 0.0 0.00 0.00 0.00 81 1020.4
20260502012457 47 115 0.0 0.0 0.00 0.00 0.00 80 1020.5
20260502011955 48 117 0.0 0.0 0.00 0.00 0.00 81 1020.5
20260502011451 48 113 0.0 0.0 0.00 0.00 0.00 81 1020.4
20260502010948 48 115 0.0 0.0 0.00 0.00 0.00 80 1020.2
20260502010445 48 107 0.0 0.0 0.00 0.00 0.00 80 1020.1
20260502005941 49 113 0.0 0.0 0.00 0.00 0.00 78 1020.1
20260502005439 49 112 0.0 0.0 0.00 0.00 0.00 77 1020.0
20260502004937 50 118 0.0 1.0 0.00 0.00 0.00 74 1019.9
20260502004438 51 123 0.0 0.0 0.00 0.00 0.00 74 1020.0
20260502003935 51 115 0.0 0.0 0.00 0.00 0.00 72 1019.7
20260502003432 53 107 0.0 1.0 0.00 0.00 0.00 68 1019.8
20260502002928 53 123 0.0 1.0 0.00 0.00 0.00 64 1019.9
20260502002426 54 130 0.0 1.0 0.00 0.00 0.00 62 1019.7
20260502001923 55 122 0.0 1.0 0.00 0.00 0.00 55 1019.5
20260502001420 56 287 2.0 3.0 0.00 0.00 0.00 57 1019.6
20260502000918 57 187 1.0 1.0 0.00 0.00 0.00 57 1019.2
20260502000417 58 112 1.0 1.0 0.00 0.00 0.00 51 1019.2
20260501235912 58 245 1.0 3.0 0.00 0.00 0.00 50 1019.0
20260501235408 58 33 2.0 3.0 0.00 0.00 0.00 51 1019.0
20260501234903 59 320 3.0 3.0 0.00 0.00 0.00 50 1018.6
20260501234400 59 6 1.0 2.0 0.00 0.00 0.00 48 1018.4
20260501233859 58 290 2.0 6.0 0.00 0.00 0.00 48 1018.4
20260501233356 57 224 1.0 2.0 0.00 0.00 0.00 50 1018.5
20260501232851 58 279 3.0 8.0 0.00 0.00 0.00 50 1018.5
20260501232349 59 125 0.0 2.0 0.00 0.00 0.00 50 1018.4
20260501231846 59 107 1.0 8.0 0.00 0.00 0.00 48 1018.7
20260501231344 59 129 0.0 6.0 0.00 0.00 0.00 50 1018.9
20260501230842 59 355 1.0 3.0 0.00 0.00 0.00 51 1018.8
20260501230341 60 192 5.0 8.0 0.00 0.00 0.00 47 1019.0
20260501225838 60 18 2.0 9.0 0.00 0.00 0.00 47 1018.8
20260501225336 61 107 4.0 7.0 0.00 0.00 0.00 45 1018.9
20260501224831 62 338 3.0 8.0 0.00 0.00 0.00 44 1018.8
20260501224329 63 176 2.0 5.0 0.00 0.00 0.00 44 1018.7
20260501223825 62 72 1.0 2.0 0.00 0.00 0.00 45 1018.7
20260501223321 61 101 2.0 6.0 0.00 0.00 0.00 46 1018.4
20260501222817 60 203 1.0 3.0 0.00 0.00 0.00 46 1018.6
20260501222315 61 17 3.0 13.0 0.00 0.00 0.00 45 1018.6
20260501221811 62 102 2.0 6.0 0.00 0.00 0.00 45 1018.5
20260501221309 64 11 3.0 6.0 0.00 0.00 0.00 42 1018.7
20260501220807 63 349 2.0 5.0 0.00 0.00 0.00 45 1018.5
20260501220303 63 162 2.0 7.0 0.00 0.00 0.00 46 1018.7
20260501215800 62 79 1.0 7.0 0.00 0.00 0.00 43 1018.4
20260501215256 62 279 3.0 7.0 0.00 0.00 0.00 43 1018.6
20260501214751 62 61 1.0 5.0 0.00 0.00 0.00 45 1018.5
20260501214247 62 353 4.0 8.0 0.00 0.00 0.00 44 1018.5
20260501213743 60 283 2.0 5.0 0.00 0.00 0.00 46 1018.8
20260501213240 60 215 1.0 5.0 0.00 0.00 0.00 46 1018.5
20260501212736 62 25 2.0 3.0 0.00 0.00 0.00 45 1018.6
20260501212232 62 288 4.0 5.0 0.00 0.00 0.00 44 1018.6
20260501211730 61 16 3.0 6.0 0.00 0.00 0.00 45 1018.7
20260501211227 60 257 6.0 10.0 0.00 0.00 0.00 45 1018.6
20260501210724 61 283 3.0 5.0 0.00 0.00 0.00 44 1018.8
20260501210221 61 334 2.0 7.0 0.00 0.00 0.00 45 1018.6
20260501205717 62 322 5.0 8.0 0.00 0.00 0.00 44 1018.7
20260501205214 63 19 2.0 6.0 0.00 0.00 0.00 43 1018.6
20260501204711 64 151 1.0 11.0 0.00 0.00 0.00 44 1018.8
20260501204208 62 30 3.0 9.0 0.00 0.00 0.00 46 1018.7
20260501203703 63 111 1.0 10.0 0.00 0.00 0.00 43 1018.9
20260501203201 64 117 1.0 5.0 0.00 0.00 0.00 43 1018.8
20260501202658 63 344 3.0 5.0 0.00 0.00 0.00 45 1018.9
20260501202155 62 109 2.0 8.0 0.00 0.00 0.00 45 1018.9
20260501201652 63 317 6.0 14.0 0.00 0.00 0.00 45 1019.0
20260501201148 63 336 4.0 10.0 0.00 0.00 0.00 45 1018.9
20260501200646 63 40 6.0 9.0 0.00 0.00 0.00 44 1019.0
20260501200143 62 131 2.0 6.0 0.00 0.00 0.00 48 1018.8
20260501195641 61 3 3.0 7.0 0.00 0.00 0.00 51 1019.0
20260501195136 60 343 5.0 6.0 0.00 0.00 0.00 49 1019.0
20260501194631 60 130 0.0 3.0 0.00 0.00 0.00 54 1018.9
20260501194127 60 338 5.0 6.0 0.00 0.00 0.00 49 1019.0
20260501193625 60 286 2.0 6.0 0.00 0.00 0.00 49 1019.0
20260501193123 61 87 4.0 7.0 0.00 0.00 0.00 50 1019.1
20260501192620 62 350 3.0 6.0 0.00 0.00 0.00 47 1019.0
20260501192117 62 256 3.0 7.0 0.00 0.00 0.00 44 1019.0
20260501191614 61 339 3.0 7.0 0.00 0.00 0.00 45 1018.9
20260501191111 62 245 3.0 7.0 0.00 0.00 0.00 47 1018.9
20260501190608 64 20 3.0 6.0 0.00 0.00 0.00 43 1018.6
20260501185559 62 159 5.0 7.0 0.00 0.00 0.00 47 1018.8
20260501185055 61 114 2.0 5.0 0.00 0.00 0.00 48 1018.6
20260501184551 63 350 2.0 6.0 0.00 0.00 0.00 45 1018.8
20260501184046 62 215 2.0 11.0 0.00 0.00 0.00 45 1018.9
20260501183543 60 58 2.0 7.0 0.00 0.00 0.00 47 1018.9
20260501183039 61 260 4.0 6.0 0.00 0.00 0.00 45 1018.8
20260501182536 61 46 3.0 13.0 0.00 0.00 0.00 44 1019.1
20260501182033 59 145 1.0 7.0 0.00 0.00 0.00 48 1019.3
20260501181531 60 4 3.0 9.0 0.00 0.00 0.00 48 1019.3
20260501181027 61 18 4.0 8.0 0.00 0.00 0.00 51 1019.2
20260501180525 61 112 1.0 9.0 0.00 0.00 0.00 50 1019.2
20260501180021 61 325 3.0 5.0 0.00 0.00 0.00 49 1019.1
20260501175518 61 141 2.0 6.0 0.00 0.00 0.00 47 1019.2
20260501175015 61 43 5.0 11.0 0.00 0.00 0.00 47 1019.2
20260501174512 60 138 3.0 7.0 0.00 0.00 0.00 46 1019.4
20260501174010 60 291 4.0 6.0 0.00 0.00 0.00 51 1019.3
20260501173507 58 266 3.0 15.0 0.00 0.00 0.00 49 1019.1
20260501173003 59 304 4.0 5.0 0.00 0.00 0.00 48 1019.3
20260501172458 58 128 1.0 6.0 0.00 0.00 0.00 53 1019.3
20260501171954 58 100 1.0 15.0 0.00 0.00 0.00 50 1019.2
20260501171450 57 199 3.0 5.0 0.00 0.00 0.00 52 1019.2